• In Hungary
  • List of Countries
  • For 7 days
  • Water Temperature
  • Satellite Maps
  • Weather Map
  • News
  • Weather Widgets
  • user-avatar
    Login

    Hourly Weather Shibam

    Today, 19 September, Wednesday

    Time Temperature Precipitation Wind Pressure Humidity
    00:00 +19°C° 0.1 mm 1 mps 561 mmHg 60%
    01:00 +18°C° 0 mm 1 mps 561 mmHg 60%
    02:00 +18°C° 0 mm 1 mps 561 mmHg 61%
    03:00 +18°C° 0 mm 1 mps 561 mmHg 62%
    04:00 +16°C° 0 mm 1 mps 561 mmHg 61%
    05:00 +16°C° 0 mm 1 mps 560 mmHg 61%
    06:00 +16°C° 0 mm 1 mps 560 mmHg 60%
    07:00 +18°C° 0 mm 1 mps 561 mmHg 50%
    08:00 +20°C° 0 mm 1 mps 562 mmHg 39%
    09:00 +22°C° 0 mm 1 mps 563 mmHg 29%
    10:00 +23°C° 0 mm 2 mps 564 mmHg 27%
    11:00 +24°C° 0 mm 3 mps 564 mmHg 24%
    12:00 +25°C° 0 mm 4 mps 564 mmHg 22%
    13:00 +25°C° 0.1 mm 4 mps 564 mmHg 24%
    14:00 +25°C° 0.1 mm 4 mps 563 mmHg 26%
    15:00 +25°C° 0.1 mm 5 mps 563 mmHg 28%
    16:00 +23°C° 0.6 mm 4 mps 562 mmHg 32%
    17:00 +22°C° 0.6 mm 4 mps 562 mmHg 37%
    18:00 +21°C° 0.6 mm 3 mps 561 mmHg 41%
    19:00 +20°C° 0.4 mm 3 mps 561 mmHg 45%
    20:00 +19°C° 0.4 mm 2 mps 561 mmHg 50%
    21:00 +19°C° 0.4 mm 2 mps 561 mmHg 54%
    22:00 +19°C° 0.2 mm 1 mps 561 mmHg 55%
    23:00 +19°C° 0.2 mm 1 mps 561 mmHg 56%

    Tomorrow, 20 September, Thursday

    Time Temperature Precipitation Wind Pressure Humidity
    00:00 +17°C° 0.2 mm 0 mps 561 mmHg 57%
    01:00 +16°C° 0 mm 0 mps 561 mmHg 57%
    02:00 +16°C° 0 mm 0 mps 560 mmHg 58%
    03:00 +16°C° 0 mm 0 mps 560 mmHg 59%
    04:00 +15°C° 0 mm 0 mps 560 mmHg 59%
    05:00 +15°C° 0 mm 0 mps 560 mmHg 59%
    06:00 +15°C° 0 mm 0 mps 560 mmHg 59%
    07:00 +18°C° 0 mm 1 mps 561 mmHg 50%
    08:00 +19°C° 0 mm 2 mps 562 mmHg 41%
    09:00 +21°C° 0 mm 2 mps 563 mmHg 32%
    10:00 +22°C° 0 mm 3 mps 564 mmHg 29%
    11:00 +23°C° 0 mm 4 mps 564 mmHg 26%
    12:00 +25°C° 0 mm 5 mps 564 mmHg 23%
    13:00 +25°C° 0 mm 5 mps 564 mmHg 23%
    14:00 +25°C° 0 mm 5 mps 563 mmHg 24%
    15:00 +24°C° 0 mm 6 mps 563 mmHg 25%
    16:00 +23°C° 0.6 mm 5 mps 562 mmHg 28%
    17:00 +22°C° 0.6 mm 5 mps 562 mmHg 31%
    18:00 +21°C° 0.6 mm 5 mps 561 mmHg 34%
    19:00 +21°C° 0.1 mm 5 mps 561 mmHg 35%
    20:00 +20°C° 0.1 mm 4 mps 562 mmHg 36%
    21:00 +20°C° 0.1 mm 4 mps 562 mmHg 37%
    22:00 +19°C° 0.2 mm 3 mps 562 mmHg 37%
    23:00 +19°C° 0.2 mm 3 mps 561 mmHg 36%

    Day after tomorrow, 21 September, Friday

    Time Temperature Precipitation Wind Pressure Humidity
    00:00 +18°C° 0.2 mm 3 mps 561 mmHg 35%
    01:00 +18°C° 0.1 mm 2 mps 561 mmHg 35%
    02:00 +17°C° 0.1 mm 2 mps 560 mmHg 35%
    03:00 +18°C° 0.1 mm 1 mps 560 mmHg 35%
    04:00 +16°C° 0 mm 1 mps 560 mmHg 34%
    05:00 +16°C° 0 mm 1 mps 560 mmHg 34%
    06:00 +16°C° 0 mm 1 mps 560 mmHg 34%
    07:00 +18°C° 0 mm 3 mps 561 mmHg 30%
    08:00 +19°C° 0 mm 4 mps 563 mmHg 26%
    09:00 +21°C° 0 mm 5 mps 564 mmHg 22%
    10:00 +22°C° 0 mm 6 mps 564 mmHg 20%
    11:00 +23°C° 0 mm 6 mps 564 mmHg 17%
    12:00 +26°C° 0 mm 7 mps 565 mmHg 15%
    13:00 +26°C° 0 mm 7 mps 564 mmHg 16%
    14:00 +26°C° 0 mm 7 mps 564 mmHg 17%
    15:00 +26°C° 0 mm 7 mps 563 mmHg 18%
    16:00 +24°C° 0 mm 7 mps 563 mmHg 21%
    17:00 +23°C° 0 mm 6 mps 562 mmHg 24%
    18:00 +22°C° 0 mm 6 mps 562 mmHg 28%
    19:00 +21°C° 0.1 mm 5 mps 562 mmHg 31%
    20:00 +20°C° 0.1 mm 4 mps 562 mmHg 35%
    21:00 +19°C° 0.1 mm 3 mps 562 mmHg 38%
    22:00 +19°C° 0.2 mm 3 mps 562 mmHg 40%
    23:00 +19°C° 0.2 mm 3 mps 562 mmHg 41%

    22 September, Saturday

    Time Temperature Precipitation Wind Pressure Humidity
    00:00 +18°C° 0.2 mm 2 mps 561 mmHg 42%
    01:00 +18°C° 0 mm 2 mps 561 mmHg 42%
    02:00 +17°C° 0 mm 2 mps 561 mmHg 43%
    03:00 +18°C° 0 mm 1 mps 560 mmHg 44%
    04:00 +18°C° 0 mm 1 mps 560 mmHg 44%
    05:00 +16°C° 0 mm 1 mps 560 mmHg 44%
    06:00 +16°C° 0 mm 1 mps 560 mmHg 45%
    07:00 +18°C° 0 mm 2 mps 562 mmHg 38%
    08:00 +19°C° 0 mm 3 mps 563 mmHg 32%
    09:00 +21°C° 0 mm 4 mps 564 mmHg 25%
    10:00 +22°C° 0 mm 5 mps 564 mmHg 22%
    11:00 +23°C° 0 mm 6 mps 565 mmHg 19%
    12:00 +24°C° 0 mm 7 mps 565 mmHg 16%
    13:00 +24°C° 0 mm 7 mps 564 mmHg 16%
    14:00 +24°C° 0 mm 7 mps 564 mmHg 16%
    15:00 +24°C° 0 mm 7 mps 563 mmHg 17%
    16:00 +23°C° 0.1 mm 7 mps 563 mmHg 19%
    17:00 +22°C° 0.1 mm 7 mps 562 mmHg 21%
    18:00 +21°C° 0.1 mm 7 mps 562 mmHg 23%
    19:00 +20°C° 0 mm 6 mps 562 mmHg 26%
    20:00 +20°C° 0 mm 5 mps 562 mmHg 28%
    21:00 +19°C° 0 mm 4 mps 562 mmHg 30%
    22:00 +18°C° 0 mm 3 mps 562 mmHg 32%
    23:00 +18°C° 0 mm 3 mps 562 mmHg 34%

    23 September, Sunday

    Time Temperature Precipitation Wind Pressure Humidity
    00:00 +17°C° 0 mm 2 mps 561 mmHg 35%
    01:00 +17°C° 0 mm 2 mps 561 mmHg 36%
    02:00 +16°C° 0 mm 2 mps 561 mmHg 36%
    03:00 +16°C° 0 mm 2 mps 560 mmHg 36%
    04:00 +15°C° 0 mm 1 mps 560 mmHg 37%
    05:00 +15°C° 0 mm 1 mps 560 mmHg 37%
    06:00 +15°C° 0 mm 1 mps 561 mmHg 37%
    07:00 +17°C° 0 mm 3 mps 562 mmHg 32%
    08:00 +18°C° 0 mm 4 mps 563 mmHg 28%
    09:00 +20°C° 0 mm 5 mps 564 mmHg 24%
    10:00 +21°C° 0 mm 6 mps 564 mmHg 21%
    11:00 +23°C° 0 mm 6 mps 565 mmHg 18%
    12:00 +24°C° 0 mm 7 mps 565 mmHg 15%
    13:00 +24°C° 0 mm 7 mps 564 mmHg 16%
    14:00 +24°C° 0 mm 7 mps 564 mmHg 16%
    15:00 +24°C° 0 mm 7 mps 563 mmHg 17%
    16:00 +23°C° 0 mm 6 mps 563 mmHg 20%
    17:00 +22°C° 0 mm 6 mps 563 mmHg 23%
    18:00 +21°C° 0 mm 5 mps 562 mmHg 26%
    19:00 +20°C° 0.3 mm 4 mps 562 mmHg 30%
    20:00 +19°C° 0.3 mm 3 mps 562 mmHg 33%
    21:00 +18°C° 0.3 mm 2 mps 562 mmHg 37%
    22:00 +18°C° 0.3 mm 2 mps 562 mmHg 38%
    23:00 +18°C° 0.3 mm 2 mps 562 mmHg 39%

    24 September, Monday

    Time Temperature Precipitation Wind Pressure Humidity
    00:00 +18°C° 0.3 mm 1 mps 561 mmHg 40%
    01:00 +18°C° 0 mm 1 mps 561 mmHg 40%
    02:00 +16°C° 0 mm 1 mps 560 mmHg 40%
    03:00 +16°C° 0 mm 1 mps 560 mmHg 41%
    04:00 +16°C° 0 mm 1 mps 560 mmHg 40%
    05:00 +15°C° 0 mm 1 mps 560 mmHg 40%
    06:00 +15°C° 0 mm 1 mps 560 mmHg 40%
    07:00 +17°C° 0 mm 2 mps 562 mmHg 35%
    08:00 +19°C° 0 mm 3 mps 563 mmHg 31%
    09:00 +21°C° 0 mm 5 mps 564 mmHg 26%
    10:00 +22°C° 0 mm 5 mps 564 mmHg 24%
    11:00 +23°C° 0 mm 6 mps 564 mmHg 21%
    12:00 +24°C° 0 mm 7 mps 564 mmHg 19%
    13:00 +24°C° 0 mm 7 mps 564 mmHg 19%
    14:00 +24°C° 0 mm 7 mps 563 mmHg 20%
    15:00 +26°C° 0 mm 7 mps 563 mmHg 20%
    16:00 +23°C° 0 mm 6 mps 563 mmHg 23%
    17:00 +22°C° 0 mm 5 mps 562 mmHg 26%
    18:00 +21°C° 0 mm 4 mps 562 mmHg 29%
    19:00 +20°C° 0 mm 3 mps 562 mmHg 32%
    20:00 +20°C° 0 mm 2 mps 562 mmHg 36%
    21:00 +20°C° 0 mm 1 mps 562 mmHg 39%
    22:00 +20°C° 0 mm 1 mps 561 mmHg 41%
    23:00 +19°C° 0 mm 1 mps 561 mmHg 44%
    Show more